Location: Camerons Lookout
(40.9833°S, 175.9333°E)
Time: 12:04:41
(UTC+00:00)

Cosmos 2263 Rocket - Pass Details

Date: 14 January 2026
Orbit: 821 x 849 km, 71.0° (Epoch: 16 February)

Event Time Altitude Azimuth Distance (km) Brightness Sun altitude
Rises 11:13:24 0° 200° (SSW) 3,390 6.7 -25.6°
Reaches altitude 10° 11:15:56 10° 194° (SSW) 2,451 5.6 -25.7°
Maximum altitude 11:21:24 51° 118° (ESE) 1,044 2.6 -26.0°
Enters shadow 11:22:12 47° 90° (E) 1,093 2.6 -26.1°
